Wetbulb
56.28 55.17 54.32 54.42 55.00 54.51 53.15 53.47 54.30 54.77 55.75 55.64 55.65 57.01 57.52 58.25 58.86 59.30 57.25 57.05 56.97 55.74
56.26 55.12 54.08 54.84 55.57 54.02 53.69 53.60 53.86 53.84 54.18 55.29 55.50 56.16 56.60 57.21 57.28 57.80 56.85 56.47 55.76 55.10
55.90 55.63 54.84 54.81 53.64 52.77 52.24 52.24 52.85 52.97 52.95 53.74 54.43 54.52 55.77 55.91 56.53 55.28 56.42 56.08 55.31 54.23
55.54 55.86 55.02 54.00 53.02 52.20 51.21 51.41 51.40 51.43 51.41 51.68 52.75 54.42 54.25 54.86 54.77 54.51 54.72 54.92 54.18 53.89
55.25 54.70 53.83 52.35 52.34 51.09 49.99 50.43 50.84 50.23 50.44 50.20 51.02 52.14 52.95 53.60 53.93 53.71 53.39 53.43 52.84 52.13
53.81 53.23 52.69 52.17 51.65 50.41 49.84 49.77 49.58 49.10 48.52 47.98 49.26 51.16 52.59 53.05 53.69 53.12 53.14 53.19 52.20 51.34
51.33 52.38 52.71 52.16 50.83 49.92 49.57 49.26 49.01 48.70 48.68 48.20 47.73 47.99 52.00 52.18 52.01 52.34 52.73 52.19 51.50 50.95
48.98 50.56 51.03 51.41 50.59 49.43 49.01 48.74 48.76 48.29 48.36 48.54 47.89 47.88 50.41 50.88 50.40 49.79 48.89 50.15 49.21 49.30
47.15 47.99 49.79 49.99 48.77 48.37 48.19 48.06 47.51 47.12 47.45 47.68 47.52 47.25 48.46 48.49 48.76 48.09 46.87 46.98 47.48 46.69
45.05 45.70 46.87 48.89 48.46 47.57 47.34 48.05 47.11 47.00 47.43 47.16 47.39 47.23 47.16 47.16 46.94 46.53 46.08 45.40 45.23 45.41
43.92 43.81 44.93 45.17 47.50 47.57 47.81 47.36 46.58 46.05 46.55 47.00 46.98 47.03 47.03 46.60 46.14 45.60 45.61 45.78 45.78 45.24
42.67 42.79 42.46 42.35 43.28 44.84 43.81 43.47 43.27 46.02 46.66 46.40 46.72 46.65 46.93 46.91 46.46 45.80 45.66 46.14 46.30 46.25
41.65 41.65 41.07 41.32 41.13 41.96 41.81 41.28 41.81 41.80 43.50 46.20 45.84 46.56 46.71 46.48 45.60 44.44 44.29 45.37 45.95 46.50
40.57 40.38 40.88 40.37 40.73 40.65 40.29 40.19 40.19 40.23 41.23 42.49 44.06 45.41 45.99 45.47 43.86 43.02 42.58 42.63 43.31 45.60
MSLP
1010.41 1010.55 1010.55 1010.57 1010.46 1010.31 1010.42 1010.36 1010.47 1010.46 1010.48 1010.49 1010.50 1010.47 1010.43 1010.36 1010.34 1010.71 1011.24 1011.54 1011.96 1012.79
1009.68 1009.79 1009.75 1009.77 1009.72 1009.83 1009.81 1009.78 1009.82 1009.74 1009.72 1009.68 1009.62 1009.58 1009.65 1009.48 1009.61 1009.95 1010.32 1010.94 1011.52 1012.00
1008.93 1008.93 1009.03 1009.04 1009.09 1009.26 1009.26 1009.28 1009.25 1009.14 1009.05 1008.87 1008.81 1008.83 1008.97 1008.94 1008.93 1009.31 1009.56 1010.19 1010.57 1011.33
1008.38 1008.19 1008.28 1008.41 1008.52 1008.58 1008.59 1008.67 1008.77 1008.62 1008.50 1008.29 1008.00 1007.88 1007.97 1008.11 1008.34 1008.52 1009.00 1009.35 1009.97 1010.38
1007.78 1007.71 1007.77 1007.91 1007.93 1008.05 1008.07 1008.37 1008.39 1008.13 1007.94 1007.58 1007.27 1007.17 1007.03 1007.22 1007.57 1007.94 1008.28 1008.77 1009.33 1010.14
1007.49 1007.24 1007.24 1007.28 1007.35 1007.50 1007.62 1007.94 1008.03 1007.78 1007.63 1007.02 1006.59 1006.36 1006.23 1006.47 1006.68 1007.16 1007.44 1007.96 1008.70 1009.35
1007.54 1007.05 1006.78 1006.72 1006.75 1006.87 1007.11 1007.61 1007.72 1007.61 1007.39 1006.89 1006.34 1005.83 1005.24 1005.60 1006.26 1006.61 1006.90 1007.46 1008.12 1008.79
1007.63 1007.04 1006.66 1006.40 1006.39 1006.58 1006.92 1007.40 1007.54 1007.47 1007.19 1006.81 1006.13 1005.48 1004.88 1005.21 1005.81 1006.38 1007.13 1007.48 1008.16 1008.86
1007.78 1007.24 1006.84 1006.49 1006.35 1006.51 1007.04 1007.40 1007.45 1007.33 1007.23 1006.62 1006.21 1005.26 1004.82 1005.06 1005.55 1006.29 1006.93 1007.57 1008.09 1009.02
1008.12 1007.59 1007.14 1006.69 1006.68 1006.84 1007.17 1007.41 1007.47 1007.43 1007.21 1006.98 1006.48 1005.82 1005.35 1005.46 1005.98 1006.43 1006.92 1007.70 1008.28 1008.68
1008.45 1008.05 1007.47 1007.08 1006.97 1007.18 1007.33 1007.41 1007.51 1007.54 1007.50 1007.34 1007.06 1006.68 1006.17 1006.07 1006.36 1007.09 1007.70 1007.57 1008.60 1008.45
1009.03 1008.49 1008.00 1007.73 1007.54 1007.66 1007.71 1007.79 1007.69 1007.61 1007.83 1007.68 1007.51 1007.35 1007.08 1006.95 1007.32 1007.67 1008.12 1008.58 1008.79 1009.32
1009.48 1009.07 1008.81 1008.42 1008.22 1008.29 1008.42 1008.45 1008.30 1008.31 1008.32 1008.09 1007.95 1008.00 1007.96 1008.10 1008.47 1008.75 1009.26 1009.67 1010.10 1010.56
1009.89 1009.70 1009.35 1009.02 1008.96 1008.91 1009.12 1009.13 1009.17 1009.11 1009.10 1008.77 1008.66 1008.64 1008.68 1008.98 1009.35 1009.84 1010.30 1010.80 1011.19 1011.54
Wind_Speed
12 8 8 11 10 8 7 8 11 11 14 14 16 16 15 12 13 15 13 16 15 11
11 11 9 11 11 7 8 7 11 12 14 15 15 16 16 13 15 15 15 16 15 14
10 10 10 10 10 10 8 8 13 12 12 14 14 15 16 14 15 14 13 13 16 15
11 11 10 9 9 11 7 8 12 11 11 13 14 15 14 14 12 16 14 17 15 19
12 8 9 8 10 8 7 7 8 8 11 13 13 14 14 16 14 14 18 16 17 18
9 7 8 9 9 8 8 6 4 2 6 3 7 15 15 15 16 14 18 17 17 17
7 6 6 7 8 8 7 6 5 2 5 3 4 6 14 14 12 13 13 14 15 16
7 6 4 5 6 7 6 4 4 1 3 4 6 5 8 12 12 10 7 11 10 11
6 6 5 4 4 6 5 5 4 0 3 4 4 4 9 10 9 11 11 10 11 8
7 6 5 3 4 6 5 6 4 2 2 3 7 11 13 13 8 8 10 11 10 11
7 6 5 5 3 5 2 3 4 3 2 3 4 11 15 17 12 11 9 10 9 15
7 7 6 6 6 6 5 5 4 5 3 3 3 9 12 13 10 11 12 10 11 12
7 6 6 7 8 7 7 7 6 9 6 3 4 7 11 9 6 9 7 8 8 12
6 6 7 7 8 8 8 9 9 11 9 11 9 7 11 11 6 6 7 6 5 5
Wind_Direction
244 238 237 245 252 256 242 237 239 244 242 232 226 233 237 236 227 216 208 215 202 196
249 240 234 236 248 243 236 237 243 241 243 235 235 233 235 231 232 222 208 209 197 200
253 239 236 235 240 235 239 244 254 249 242 238 236 233 237 235 230 223 213 206 201 191
269 253 242 237 239 234 232 243 256 254 251 249 242 231 226 225 216 213 216 202 198 197
269 252 236 233 235 224 214 230 251 265 259 246 239 237 231 227 217 209 210 197 195 197
268 246 234 235 232 215 206 214 245 300 276 251 259 238 229 221 216 214 203 196 195 187
309 288 256 237 225 206 184 208 209 213 272 318 291 264 222 203 206 203 209 198 187 186
325 314 302 271 223 172 161 167 175 167 319 275 346 276 190 189 181 173 166 169 172 184
343 342 329 330 157 145 141 165 198 354 344 8 346 344 172 148 159 154 142 157 158 144
346 345 350 8 144 150 167 176 157 162 41 15 30 35 92 112 122 121 135 135 136 119
346 352 18 30 63 135 163 188 181 161 45 65 64 49 65 86 90 94 98 106 129 115
356 13 23 48 44 66 64 53 51 140 120 86 71 79 60 72 77 85 78 83 91 98
12 25 40 58 58 68 68 59 58 59 28 71 104 109 94 85 88 84 84 75 86 113
25 39 58 63 61 71 68 70 64 68 50 53 52 71 94 102 100 107 93 90 88 108